Year,Month,Day,Hour,Minute,Value (Times are PST for windgust in km/hr)
2017,05,26,00,00,3.20
2017,05,26,00,01,3.20
2017,05,26,00,02,3.20
2017,05,26,00,03,3.20
2017,05,26,00,04,3.20
2017,05,26,00,05,1.60
2017,05,26,00,06,1.60
2017,05,26,00,08,1.60
2017,05,26,00,09,1.60
2017,05,26,00,10,1.60
2017,05,26,00,11,1.60
2017,05,26,00,15,1.60
2017,05,26,00,20,1.60
2017,05,26,00,21,1.60
2017,05,26,00,22,1.60
2017,05,26,00,23,1.60
2017,05,26,00,24,3.20
2017,05,26,00,25,3.20
2017,05,26,00,26,3.20
2017,05,26,00,27,4.80
2017,05,26,00,28,3.20
2017,05,26,00,29,3.20
2017,05,26,00,30,4.80
2017,05,26,00,31,4.80
2017,05,26,00,32,3.20
2017,05,26,00,33,3.20
2017,05,26,00,34,3.20
2017,05,26,00,35,1.60
2017,05,26,00,36,1.60
2017,05,26,00,37,1.60
2017,05,26,00,39,1.60
2017,05,26,00,40,1.60
2017,05,26,00,41,1.60
2017,05,26,00,53,1.60
2017,05,26,00,54,3.20
2017,05,26,00,55,3.20
2017,05,26,00,56,3.20
2017,05,26,00,57,3.20
2017,05,26,00,58,3.20
2017,05,26,00,59,1.60
2017,05,26,01,05,1.60
2017,05,26,01,06,3.20
2017,05,26,01,07,3.20
2017,05,26,01,08,4.80
2017,05,26,01,09,3.20
2017,05,26,01,10,3.20
2017,05,26,01,11,1.60
2017,05,26,01,13,1.60
2017,05,26,01,14,4.80
2017,05,26,01,15,4.80
2017,05,26,01,16,3.20
2017,05,26,01,17,3.20
2017,05,26,01,18,3.20
2017,05,26,01,19,3.20
2017,05,26,01,20,3.20
2017,05,26,01,21,1.60
2017,05,26,01,22,1.60
2017,05,26,01,26,1.60
2017,05,26,01,27,3.20
2017,05,26,01,28,3.20
2017,05,26,01,29,3.20
2017,05,26,01,30,3.20
2017,05,26,01,31,1.60
2017,05,26,01,49,3.20
2017,05,26,01,50,3.20
2017,05,26,01,51,3.20
2017,05,26,01,52,1.60
2017,05,26,02,04,1.60
2017,05,26,02,05,3.20
2017,05,26,02,06,1.60
2017,05,26,02,09,1.60
2017,05,26,02,16,1.60
2017,05,26,02,20,1.60
2017,05,26,02,21,3.20
2017,05,26,02,22,1.60
2017,05,26,02,23,1.60
2017,05,26,02,24,1.60
2017,05,26,02,25,1.60
2017,05,26,02,26,1.60
2017,05,26,02,27,3.20
2017,05,26,02,28,1.60
2017,05,26,02,29,1.60
2017,05,26,02,30,3.20
2017,05,26,02,35,1.60
2017,05,26,02,36,1.60
2017,05,26,02,47,3.20
2017,05,26,02,48,4.80
2017,05,26,02,49,3.20
2017,05,26,02,50,3.20
2017,05,26,02,52,1.60
2017,05,26,02,53,1.60
2017,05,26,02,55,1.60
2017,05,26,02,56,1.60
2017,05,26,02,57,1.60
2017,05,26,02,58,1.60
2017,05,26,02,59,1.60
2017,05,26,03,00,1.60
2017,05,26,03,01,4.80
2017,05,26,03,02,4.80
2017,05,26,03,03,3.20
2017,05,26,03,04,3.20
2017,05,26,03,05,1.60
2017,05,26,03,06,3.20
2017,05,26,03,07,4.80
2017,05,26,03,08,1.60
2017,05,26,03,09,1.60
2017,05,26,03,10,3.20
2017,05,26,03,11,3.20
2017,05,26,03,12,3.20
2017,05,26,03,13,3.20
2017,05,26,03,14,4.80
2017,05,26,03,15,4.80
2017,05,26,03,16,4.80
2017,05,26,03,17,6.40
2017,05,26,03,18,4.80
2017,05,26,03,19,6.40
2017,05,26,03,20,4.80
2017,05,26,03,21,4.80
2017,05,26,03,22,4.80
2017,05,26,03,23,4.80
2017,05,26,03,24,4.80
2017,05,26,03,25,4.80
2017,05,26,03,26,3.20
2017,05,26,03,27,3.20
2017,05,26,03,28,3.20
2017,05,26,03,29,3.20
2017,05,26,03,30,1.60
2017,05,26,03,31,3.20
2017,05,26,03,32,3.20
2017,05,26,03,33,3.20
2017,05,26,03,34,3.20
2017,05,26,03,35,3.20
2017,05,26,03,36,3.20
2017,05,26,03,37,3.20
2017,05,26,03,38,3.20
2017,05,26,03,39,4.80
2017,05,26,03,40,3.20
2017,05,26,03,41,4.80
2017,05,26,03,42,3.20
2017,05,26,03,43,3.20
2017,05,26,03,44,3.20
2017,05,26,03,45,3.20
2017,05,26,03,46,3.20
2017,05,26,03,47,3.20
2017,05,26,03,48,3.20
2017,05,26,03,49,3.20
2017,05,26,03,50,3.20
2017,05,26,03,51,3.20
2017,05,26,03,52,3.20
2017,05,26,03,53,3.20
2017,05,26,03,54,3.20
2017,05,26,03,55,1.60
2017,05,26,03,56,1.60
2017,05,26,03,57,1.60
2017,05,26,03,58,1.60
2017,05,26,04,00,3.20
2017,05,26,04,01,3.20
2017,05,26,04,02,3.20
2017,05,26,04,03,3.20
2017,05,26,04,04,3.20
2017,05,26,04,05,3.20
2017,05,26,04,06,3.20
2017,05,26,04,07,1.60
2017,05,26,04,08,1.60
2017,05,26,04,09,3.20
2017,05,26,04,10,3.20
2017,05,26,04,12,3.20
2017,05,26,04,13,1.60
2017,05,26,04,14,1.60
2017,05,26,04,15,3.20
2017,05,26,04,16,3.20
2017,05,26,04,18,1.60
2017,05,26,04,19,3.20
2017,05,26,04,20,3.20
2017,05,26,04,21,3.20
2017,05,26,04,22,1.60
2017,05,26,04,23,1.60
2017,05,26,04,24,1.60
2017,05,26,04,25,1.60
2017,05,26,04,26,1.60
2017,05,26,04,27,1.60
2017,05,26,04,32,1.60
2017,05,26,04,53,1.60
2017,05,26,04,54,1.60
2017,05,26,04,55,1.60
2017,05,26,04,57,1.60
2017,05,26,04,58,1.60
2017,05,26,04,59,1.60
2017,05,26,05,00,3.20
2017,05,26,05,01,3.20
2017,05,26,05,02,1.60
2017,05,26,05,03,1.60
2017,05,26,05,06,1.60
2017,05,26,05,07,1.60
2017,05,26,05,08,1.60
2017,05,26,05,09,1.60
2017,05,26,05,10,1.60
2017,05,26,05,11,1.60
2017,05,26,05,12,1.60
2017,05,26,05,13,1.60
2017,05,26,05,18,1.60
2017,05,26,05,19,1.60
2017,05,26,05,20,1.60
2017,05,26,05,25,1.60
2017,05,26,05,34,1.60
2017,05,26,05,46,3.20
2017,05,26,05,47,1.60
2017,05,26,05,48,3.20
2017,05,26,05,49,3.20
2017,05,26,05,50,1.60
2017,05,26,05,51,1.60
2017,05,26,05,52,3.20
2017,05,26,05,53,1.60
2017,05,26,05,54,3.20
2017,05,26,05,55,3.20
2017,05,26,06,01,1.60
2017,05,26,06,10,1.60
2017,05,26,06,11,1.60
2017,05,26,06,12,1.60
2017,05,26,06,15,1.60
2017,05,26,06,20,1.60
2017,05,26,06,22,3.20
2017,05,26,06,23,3.20
2017,05,26,06,27,1.60
2017,05,26,06,28,1.60
2017,05,26,06,31,1.60
2017,05,26,06,32,1.60
2017,05,26,06,39,3.20
2017,05,26,06,40,3.20
2017,05,26,06,41,3.20
2017,05,26,06,42,3.20
2017,05,26,06,43,3.20
2017,05,26,06,44,1.60
2017,05,26,06,46,3.20
2017,05,26,06,47,3.20
2017,05,26,06,48,3.20
2017,05,26,06,49,3.20
2017,05,26,06,50,3.20
2017,05,26,06,51,3.20
2017,05,26,06,52,3.20
2017,05,26,06,53,3.20
2017,05,26,06,54,3.20
2017,05,26,06,55,3.20
2017,05,26,06,56,3.20
2017,05,26,06,57,3.20
2017,05,26,06,58,3.20
2017,05,26,06,59,3.20
2017,05,26,07,00,1.60
2017,05,26,07,01,3.20
2017,05,26,07,02,3.20
2017,05,26,07,03,1.60
2017,05,26,07,05,1.60
2017,05,26,07,06,3.20
2017,05,26,07,07,1.60
2017,05,26,07,08,3.20
2017,05,26,07,09,4.80
2017,05,26,07,10,3.20
2017,05,26,07,11,1.60
2017,05,26,07,12,1.60
2017,05,26,07,13,3.20
2017,05,26,07,14,3.20
2017,05,26,07,15,3.20
2017,05,26,07,16,1.60
2017,05,26,07,17,1.60
2017,05,26,07,18,4.80
2017,05,26,07,19,4.80
2017,05,26,07,20,3.20
2017,05,26,07,21,1.60
2017,05,26,07,22,1.60
2017,05,26,07,23,4.80
2017,05,26,07,24,6.40
2017,05,26,07,25,3.20
2017,05,26,07,26,3.20
2017,05,26,07,27,4.80
2017,05,26,07,28,3.20
2017,05,26,07,29,3.20
2017,05,26,07,30,3.20
2017,05,26,07,31,3.20
2017,05,26,07,32,1.60
2017,05,26,07,33,3.20
2017,05,26,07,34,3.20
2017,05,26,07,35,3.20
2017,05,26,07,36,4.80
2017,05,26,07,37,4.80
2017,05,26,07,38,3.20
2017,05,26,07,39,4.80
2017,05,26,07,40,4.80
2017,05,26,07,41,1.60
2017,05,26,07,42,6.40
2017,05,26,07,43,6.40
2017,05,26,07,44,4.80
2017,05,26,07,45,3.20
2017,05,26,07,46,4.80
2017,05,26,07,47,3.20
2017,05,26,07,48,3.20
2017,05,26,07,49,3.20
2017,05,26,07,50,1.60
2017,05,26,07,51,3.20
2017,05,26,07,52,3.20
2017,05,26,07,53,3.20
2017,05,26,07,54,3.20
2017,05,26,07,55,3.20
2017,05,26,07,57,3.20
2017,05,26,07,58,4.80
2017,05,26,07,59,4.80
2017,05,26,08,00,4.80
2017,05,26,08,01,4.80
2017,05,26,08,02,3.20
2017,05,26,08,03,3.20
2017,05,26,08,04,4.80
2017,05,26,08,05,4.80
2017,05,26,08,06,4.80
2017,05,26,08,07,3.20
2017,05,26,08,08,4.80
2017,05,26,08,09,3.20
2017,05,26,08,10,3.20
2017,05,26,08,11,4.80
2017,05,26,08,12,8.10
2017,05,26,08,13,8.10
2017,05,26,08,14,6.40
2017,05,26,08,15,6.40
2017,05,26,08,16,4.80
2017,05,26,08,17,6.40
2017,05,26,08,18,6.40
2017,05,26,08,19,8.10
2017,05,26,08,20,9.60
2017,05,26,08,21,9.60
2017,05,26,08,22,9.60
2017,05,26,08,23,8.10
2017,05,26,08,24,8.10
2017,05,26,08,25,11.30
2017,05,26,08,26,11.30
2017,05,26,08,27,9.60
2017,05,26,08,28,8.10
2017,05,26,08,29,8.10
2017,05,26,08,30,8.10
2017,05,26,08,31,8.10
2017,05,26,08,32,8.10
2017,05,26,08,33,4.80
2017,05,26,08,34,6.40
2017,05,26,08,35,6.40
2017,05,26,08,36,4.80
2017,05,26,08,37,8.10
2017,05,26,08,38,8.10
2017,05,26,08,39,9.60
2017,05,26,08,40,8.10
2017,05,26,08,41,6.40
2017,05,26,08,42,6.40
2017,05,26,08,43,6.40
2017,05,26,08,44,6.40
2017,05,26,08,45,6.40
2017,05,26,08,46,6.40
2017,05,26,08,47,6.40
2017,05,26,08,48,6.40
2017,05,26,08,49,6.40
2017,05,26,08,50,6.40
2017,05,26,08,51,6.40
2017,05,26,08,52,8.10
2017,05,26,08,53,9.60
2017,05,26,08,54,8.10
2017,05,26,08,55,8.10
2017,05,26,08,56,6.40
2017,05,26,08,57,6.40
2017,05,26,08,58,8.10
2017,05,26,08,59,8.10
2017,05,26,09,00,8.10
2017,05,26,09,01,8.10
2017,05,26,09,02,6.40
2017,05,26,09,03,6.40
2017,05,26,09,04,4.80
2017,05,26,09,05,4.80
2017,05,26,09,06,4.80
2017,05,26,09,07,6.40
2017,05,26,09,08,8.10
2017,05,26,09,09,8.10
2017,05,26,09,10,6.40
2017,05,26,09,11,4.80
2017,05,26,09,12,6.40
2017,05,26,09,13,6.40
2017,05,26,09,14,6.40
2017,05,26,09,15,6.40
2017,05,26,09,16,3.20
2017,05,26,09,17,6.40
2017,05,26,09,18,6.40
2017,05,26,09,19,3.20
2017,05,26,09,20,1.60
2017,05,26,09,21,3.20
2017,05,26,09,22,3.20
2017,05,26,09,23,4.80
2017,05,26,09,24,3.20
2017,05,26,09,25,1.60
2017,05,26,09,26,4.80
2017,05,26,09,27,3.20
2017,05,26,09,28,3.20
2017,05,26,09,29,3.20
2017,05,26,09,30,4.80
2017,05,26,09,31,3.20
2017,05,26,09,32,6.40
2017,05,26,09,33,3.20
2017,05,26,09,34,3.20
2017,05,26,09,35,6.40
2017,05,26,09,36,3.20
2017,05,26,09,37,4.80
2017,05,26,09,38,8.10
2017,05,26,09,39,4.80
2017,05,26,09,40,8.10
2017,05,26,09,41,4.80
2017,05,26,09,42,3.20
2017,05,26,09,43,9.60
2017,05,26,09,44,6.40
2017,05,26,09,45,4.80
2017,05,26,09,46,4.80
2017,05,26,09,47,6.40
2017,05,26,09,48,3.20
2017,05,26,09,49,6.40
2017,05,26,09,50,4.80
2017,05,26,09,51,3.20
2017,05,26,09,52,8.10
2017,05,26,09,53,4.80
2017,05,26,09,54,3.20
2017,05,26,09,55,3.20
2017,05,26,09,56,4.80
2017,05,26,09,57,8.10
2017,05,26,09,58,4.80
2017,05,26,09,59,8.10
2017,05,26,10,00,8.10
2017,05,26,10,01,11.30
2017,05,26,10,02,9.60
2017,05,26,10,03,6.40
2017,05,26,10,04,4.80
2017,05,26,10,05,4.80
2017,05,26,10,06,9.60
2017,05,26,10,07,8.10
2017,05,26,10,08,8.10
2017,05,26,10,09,9.60
2017,05,26,10,10,6.40
2017,05,26,10,11,4.80
2017,05,26,10,12,4.80
2017,05,26,10,13,9.60
2017,05,26,10,14,6.40
2017,05,26,10,15,6.40
2017,05,26,10,16,4.80
2017,05,26,10,17,6.40
2017,05,26,10,18,8.10
2017,05,26,10,19,6.40
2017,05,26,10,20,8.10
2017,05,26,10,21,8.10
2017,05,26,10,22,9.60
2017,05,26,10,23,11.30
2017,05,26,10,24,8.10
2017,05,26,10,25,8.10
2017,05,26,10,26,8.10
2017,05,26,10,27,9.60
2017,05,26,10,28,8.10
2017,05,26,10,29,9.60
2017,05,26,10,30,11.30
2017,05,26,10,31,9.60
2017,05,26,10,32,6.40
2017,05,26,10,33,9.60
2017,05,26,10,34,8.10
2017,05,26,10,35,9.60
2017,05,26,10,36,8.10
2017,05,26,10,37,8.10
2017,05,26,10,38,8.10
2017,05,26,10,39,9.60
2017,05,26,10,40,9.60
2017,05,26,10,41,9.60
2017,05,26,10,42,8.10
2017,05,26,10,43,11.30
2017,05,26,10,44,6.40
2017,05,26,10,45,9.60
2017,05,26,10,46,9.60
2017,05,26,10,47,6.40
2017,05,26,10,48,8.10
2017,05,26,10,49,9.60
2017,05,26,10,50,9.60
2017,05,26,10,51,8.10
2017,05,26,10,52,9.60
2017,05,26,10,53,8.10
2017,05,26,10,54,8.10
2017,05,26,10,55,8.10
2017,05,26,10,56,8.10
2017,05,26,10,57,6.40
2017,05,26,10,58,11.30
2017,05,26,10,59,16.10
2017,05,26,11,00,9.60
2017,05,26,11,01,9.60
2017,05,26,11,02,9.60
2017,05,26,11,03,9.60
2017,05,26,11,04,9.60
2017,05,26,11,05,9.60
2017,05,26,11,06,6.40
2017,05,26,11,07,8.10
2017,05,26,11,08,6.40
2017,05,26,11,09,9.60
2017,05,26,11,10,6.40
2017,05,26,11,11,4.80
2017,05,26,11,12,9.60
2017,05,26,11,13,14.50
2017,05,26,11,14,8.10
2017,05,26,11,15,9.60
2017,05,26,11,16,8.10
2017,05,26,11,17,6.40
2017,05,26,11,18,3.20
2017,05,26,11,19,9.60
2017,05,26,11,20,8.10
2017,05,26,11,21,9.60
2017,05,26,11,22,8.10
2017,05,26,11,23,9.60
2017,05,26,11,24,9.60
2017,05,26,11,25,6.40
2017,05,26,11,26,8.10
2017,05,26,11,27,4.80
2017,05,26,11,28,11.30
2017,05,26,11,29,9.60
2017,05,26,11,30,8.10
2017,05,26,11,31,8.10
2017,05,26,11,32,6.40
2017,05,26,11,33,4.80
2017,05,26,11,34,4.80
2017,05,26,11,35,8.10
2017,05,26,11,36,4.80
2017,05,26,11,37,6.40
2017,05,26,11,38,8.10
2017,05,26,11,39,6.40
2017,05,26,11,40,6.40
2017,05,26,11,41,9.60
2017,05,26,11,42,6.40
2017,05,26,11,43,9.60
2017,05,26,11,44,6.40
2017,05,26,11,45,6.40
2017,05,26,11,46,6.40
2017,05,26,11,47,4.80
2017,05,26,11,48,4.80
2017,05,26,11,49,6.40
2017,05,26,11,50,11.30
2017,05,26,11,51,14.50
2017,05,26,11,52,6.40
2017,05,26,11,53,8.10
2017,05,26,11,54,6.40
2017,05,26,11,55,4.80
2017,05,26,11,56,9.60
2017,05,26,11,57,8.10
2017,05,26,11,58,6.40
2017,05,26,11,59,9.60
2017,05,26,12,00,14.50
2017,05,26,12,01,14.50
2017,05,26,12,02,12.90
2017,05,26,12,03,11.30
2017,05,26,12,04,14.50
2017,05,26,12,05,9.60
2017,05,26,12,06,16.10
2017,05,26,12,07,16.10
2017,05,26,12,08,11.30
2017,05,26,12,09,11.30
2017,05,26,12,10,9.60
2017,05,26,12,11,8.10
2017,05,26,12,12,9.60
2017,05,26,12,13,9.60
2017,05,26,12,14,9.60
2017,05,26,12,15,8.10
2017,05,26,12,16,9.60
2017,05,26,12,17,8.10
2017,05,26,12,18,9.60
2017,05,26,12,19,11.30
2017,05,26,12,20,8.10
2017,05,26,12,21,11.30
2017,05,26,12,22,11.30
2017,05,26,12,23,12.90
2017,05,26,12,24,11.30
2017,05,26,12,25,9.60
2017,05,26,12,26,11.30
2017,05,26,12,27,9.60
2017,05,26,12,28,9.60
2017,05,26,12,29,8.10
2017,05,26,12,30,8.10
2017,05,26,12,31,12.90
2017,05,26,12,32,11.30
2017,05,26,12,33,11.30
2017,05,26,12,34,11.30
2017,05,26,12,35,9.60
2017,05,26,12,36,9.60
2017,05,26,12,37,6.40
2017,05,26,12,38,8.10
2017,05,26,12,39,14.50
2017,05,26,12,40,14.50
2017,05,26,12,41,16.10
2017,05,26,12,42,12.90
2017,05,26,12,43,14.50
2017,05,26,12,44,11.30
2017,05,26,12,45,11.30
2017,05,26,12,46,9.60
2017,05,26,12,47,9.60
2017,05,26,12,48,9.60
2017,05,26,12,49,9.60
2017,05,26,12,50,8.10
2017,05,26,12,51,9.60
2017,05,26,12,52,11.30
2017,05,26,12,53,11.30
2017,05,26,12,54,11.30
2017,05,26,12,55,9.60
2017,05,26,12,56,9.60
2017,05,26,12,57,9.60
2017,05,26,12,58,9.60
2017,05,26,12,59,8.10
2017,05,26,13,00,8.10
2017,05,26,13,01,9.60
2017,05,26,13,02,8.10
2017,05,26,13,03,8.10
2017,05,26,13,04,9.60
2017,05,26,13,05,8.10
2017,05,26,13,06,9.60
2017,05,26,13,07,11.30
2017,05,26,13,08,11.30
2017,05,26,13,09,9.60
2017,05,26,13,10,9.60
2017,05,26,13,11,9.60
2017,05,26,13,12,11.30
2017,05,26,13,13,9.60
2017,05,26,13,14,9.60
2017,05,26,13,15,9.60
2017,05,26,13,16,8.10
2017,05,26,13,17,6.40
2017,05,26,13,18,9.60
2017,05,26,13,19,11.30
2017,05,26,13,20,8.10
2017,05,26,13,21,11.30
2017,05,26,13,22,14.50
2017,05,26,13,23,11.30
2017,05,26,13,24,11.30
2017,05,26,13,25,9.60
2017,05,26,13,26,11.30
2017,05,26,13,27,14.50
2017,05,26,13,28,11.30
2017,05,26,13,29,14.50
2017,05,26,13,30,14.50
2017,05,26,13,31,12.90
2017,05,26,13,32,14.50
2017,05,26,13,33,11.30
2017,05,26,13,34,11.30
2017,05,26,13,35,9.60
2017,05,26,13,36,14.50
2017,05,26,13,37,11.30
2017,05,26,13,38,16.10
2017,05,26,13,39,14.50
2017,05,26,13,40,12.90
2017,05,26,13,41,14.50
2017,05,26,13,42,11.30
2017,05,26,13,43,11.30
2017,05,26,13,44,9.60
2017,05,26,13,45,6.40
2017,05,26,13,46,11.30
2017,05,26,13,47,9.60
2017,05,26,13,48,9.60
2017,05,26,13,49,16.10
2017,05,26,13,50,12.90
2017,05,26,13,51,14.50
2017,05,26,13,52,14.50
2017,05,26,13,53,14.50
2017,05,26,13,54,14.50
2017,05,26,13,55,14.50
2017,05,26,13,56,11.30
2017,05,26,13,57,16.10
2017,05,26,13,58,14.50
2017,05,26,13,59,11.30
2017,05,26,14,00,16.10
2017,05,26,14,01,12.90
2017,05,26,14,02,8.10
2017,05,26,14,03,11.30
2017,05,26,14,04,11.30
2017,05,26,14,05,11.30
2017,05,26,14,06,8.10
2017,05,26,14,07,9.60
2017,05,26,14,08,9.60
2017,05,26,14,09,9.60
2017,05,26,14,10,11.30
2017,05,26,14,11,14.50
2017,05,26,14,12,11.30
2017,05,26,14,13,11.30
2017,05,26,14,14,8.10
2017,05,26,14,15,6.40
2017,05,26,14,16,9.60
2017,05,26,14,17,8.10
2017,05,26,14,18,9.60
2017,05,26,14,19,11.30
2017,05,26,14,20,9.60
2017,05,26,14,21,9.60
2017,05,26,14,22,9.60
2017,05,26,14,23,8.10
2017,05,26,14,24,9.60
2017,05,26,14,25,8.10
2017,05,26,14,26,6.40
2017,05,26,14,27,4.80
2017,05,26,14,28,11.30
2017,05,26,14,29,11.30
2017,05,26,14,30,6.40
2017,05,26,14,31,11.30
2017,05,26,14,32,9.60
2017,05,26,14,33,6.40
2017,05,26,14,34,8.10
2017,05,26,14,35,9.60
2017,05,26,14,36,9.60
2017,05,26,14,37,9.60
2017,05,26,14,38,6.40
2017,05,26,14,39,6.40
2017,05,26,14,40,9.60
2017,05,26,14,41,8.10
2017,05,26,14,42,8.10
2017,05,26,14,43,8.10
2017,05,26,14,44,9.60
2017,05,26,14,45,8.10
2017,05,26,14,46,9.60
2017,05,26,14,47,8.10
2017,05,26,14,48,14.50
2017,05,26,14,49,9.60
2017,05,26,14,50,11.30
2017,05,26,14,51,11.30
2017,05,26,14,52,9.60
2017,05,26,14,53,11.30
2017,05,26,14,54,9.60
2017,05,26,14,55,8.10
2017,05,26,14,56,9.60
2017,05,26,14,57,9.60
2017,05,26,14,58,11.30
2017,05,26,14,59,9.60
2017,05,26,15,00,12.90
2017,05,26,15,01,11.30
2017,05,26,15,02,11.30
2017,05,26,15,03,9.60
2017,05,26,15,04,6.40
2017,05,26,15,05,6.40
2017,05,26,15,06,8.10
2017,05,26,15,07,8.10
2017,05,26,15,08,8.10
2017,05,26,15,09,9.60
2017,05,26,15,10,8.10
2017,05,26,15,11,9.60
2017,05,26,15,12,9.60
2017,05,26,15,13,8.10
2017,05,26,15,14,8.10
2017,05,26,15,15,9.60
2017,05,26,15,16,9.60
2017,05,26,15,17,9.60
2017,05,26,15,18,9.60
2017,05,26,15,19,8.10
2017,05,26,15,20,9.60
2017,05,26,15,21,8.10
2017,05,26,15,22,8.10
2017,05,26,15,23,11.30
2017,05,26,15,24,9.60
2017,05,26,15,25,8.10
2017,05,26,15,26,11.30
2017,05,26,15,27,9.60
2017,05,26,15,28,6.40
2017,05,26,15,29,6.40
2017,05,26,15,30,9.60
2017,05,26,15,31,9.60
2017,05,26,15,32,8.10
2017,05,26,15,33,8.10
2017,05,26,15,34,8.10
2017,05,26,15,35,6.40
2017,05,26,15,36,11.30
2017,05,26,15,37,8.10
2017,05,26,15,38,9.60
2017,05,26,15,39,9.60
2017,05,26,15,40,6.40
2017,05,26,15,41,6.40
2017,05,26,15,42,8.10
2017,05,26,15,43,11.30
2017,05,26,15,44,9.60
2017,05,26,15,45,9.60
2017,05,26,15,46,14.50
2017,05,26,15,47,11.30
2017,05,26,15,48,6.40
2017,05,26,15,49,8.10
2017,05,26,15,50,11.30
2017,05,26,15,51,9.60
2017,05,26,15,52,9.60
2017,05,26,15,53,9.60
2017,05,26,15,54,8.10
2017,05,26,15,55,8.10
2017,05,26,15,56,9.60
2017,05,26,15,57,9.60
2017,05,26,15,58,11.30
2017,05,26,15,59,11.30
2017,05,26,16,00,9.60
2017,05,26,16,01,8.10
2017,05,26,16,02,8.10
2017,05,26,16,03,11.30
2017,05,26,16,04,11.30
2017,05,26,16,05,11.30
2017,05,26,16,06,11.30
2017,05,26,16,07,11.30
2017,05,26,16,08,12.90
2017,05,26,16,09,8.10
2017,05,26,16,10,6.40
2017,05,26,16,11,11.30
2017,05,26,16,12,8.10
2017,05,26,16,13,8.10
2017,05,26,16,14,8.10
2017,05,26,16,15,6.40
2017,05,26,16,16,11.30
2017,05,26,16,17,11.30
2017,05,26,16,18,8.10
2017,05,26,16,19,9.60
2017,05,26,16,20,9.60
2017,05,26,16,21,14.50
2017,05,26,16,22,14.50
2017,05,26,16,23,11.30
2017,05,26,16,24,16.10
2017,05,26,16,25,11.30
2017,05,26,16,26,12.90
2017,05,26,16,27,14.50
2017,05,26,16,28,9.60
2017,05,26,16,29,14.50
2017,05,26,16,30,11.30
2017,05,26,16,31,8.10
2017,05,26,16,32,14.50
2017,05,26,16,33,9.60
2017,05,26,16,34,11.30
2017,05,26,16,35,14.50
2017,05,26,16,36,17.70
2017,05,26,16,37,14.50
2017,05,26,16,38,14.50
2017,05,26,16,39,16.10
2017,05,26,16,40,14.50
2017,05,26,16,41,8.10
2017,05,26,16,42,8.10
2017,05,26,16,43,14.50
2017,05,26,16,44,9.60
2017,05,26,16,45,9.60
2017,05,26,16,46,14.50
2017,05,26,16,47,9.60
2017,05,26,16,48,14.50
2017,05,26,16,49,9.60
2017,05,26,16,50,17.70
2017,05,26,16,51,17.70
2017,05,26,16,52,9.60
2017,05,26,16,53,9.60
2017,05,26,16,54,11.30
2017,05,26,16,55,9.60
2017,05,26,16,56,11.30
2017,05,26,16,57,16.10
2017,05,26,16,58,11.30
2017,05,26,16,59,14.50
2017,05,26,17,00,14.50
2017,05,26,17,01,11.30
2017,05,26,17,02,16.10
2017,05,26,17,03,14.50
2017,05,26,17,04,17.70
2017,05,26,17,05,11.30
2017,05,26,17,06,12.90
2017,05,26,17,07,11.30
2017,05,26,17,08,17.70
2017,05,26,17,09,16.10
2017,05,26,17,10,19.30
2017,05,26,17,11,14.50
2017,05,26,17,12,16.10
2017,05,26,17,13,14.50
2017,05,26,17,14,8.10
2017,05,26,17,15,12.90
2017,05,26,17,16,14.50
2017,05,26,17,17,17.70
2017,05,26,17,18,11.30
2017,05,26,17,19,16.10
2017,05,26,17,20,16.10
2017,05,26,17,21,17.70
2017,05,26,17,22,16.10
2017,05,26,17,23,11.30
2017,05,26,17,24,19.30
2017,05,26,17,25,17.70
2017,05,26,17,26,16.10
2017,05,26,17,27,17.70
2017,05,26,17,28,19.30
2017,05,26,17,29,20.90
2017,05,26,17,30,19.30
2017,05,26,17,31,20.90
2017,05,26,17,32,16.10
2017,05,26,17,33,17.70
2017,05,26,17,34,11.30
2017,05,26,17,35,11.30
2017,05,26,17,36,17.70
2017,05,26,17,37,14.50
2017,05,26,17,38,16.10
2017,05,26,17,39,14.50
2017,05,26,17,40,14.50
2017,05,26,17,41,11.30
2017,05,26,17,42,14.50
2017,05,26,17,43,17.70
2017,05,26,17,44,16.10
2017,05,26,17,45,16.10
2017,05,26,17,46,11.30
2017,05,26,17,47,12.90
2017,05,26,17,48,12.90
2017,05,26,17,49,19.30
2017,05,26,17,50,11.30
2017,05,26,17,51,12.90
2017,05,26,17,52,16.10
2017,05,26,17,53,14.50
2017,05,26,17,54,17.70
2017,05,26,17,55,16.10
2017,05,26,17,56,20.90
2017,05,26,17,57,17.70
2017,05,26,17,58,16.10
2017,05,26,17,59,16.10
2017,05,26,18,00,19.30
2017,05,26,18,01,20.90
2017,05,26,18,02,19.30
2017,05,26,18,03,16.10
2017,05,26,18,04,19.30
2017,05,26,18,05,16.10
2017,05,26,18,06,20.90
2017,05,26,18,07,16.10
2017,05,26,18,08,14.50
2017,05,26,18,09,17.70
2017,05,26,18,10,14.50
2017,05,26,18,11,19.30
2017,05,26,18,12,16.10
2017,05,26,18,13,16.10
2017,05,26,18,14,11.30
2017,05,26,18,15,16.10
2017,05,26,18,16,16.10
2017,05,26,18,17,19.30
2017,05,26,18,18,17.70
2017,05,26,18,19,9.60
2017,05,26,18,20,14.50
2017,05,26,18,21,14.50
2017,05,26,18,22,14.50
2017,05,26,18,23,17.70
2017,05,26,18,24,16.10
2017,05,26,18,25,17.70
2017,05,26,18,26,11.30
2017,05,26,18,27,11.30
2017,05,26,18,28,16.10
2017,05,26,18,29,9.60
2017,05,26,18,30,16.10
2017,05,26,18,31,11.30
2017,05,26,18,32,16.10
2017,05,26,18,33,16.10
2017,05,26,18,34,16.10
2017,05,26,18,35,14.50
2017,05,26,18,36,14.50
2017,05,26,18,37,11.30
2017,05,26,18,38,17.70
2017,05,26,18,39,14.50
2017,05,26,18,40,14.50
2017,05,26,18,41,19.30
2017,05,26,18,42,9.60
2017,05,26,18,43,17.70
2017,05,26,18,44,12.90
2017,05,26,18,45,19.30
2017,05,26,18,46,19.30
2017,05,26,18,47,12.90
2017,05,26,18,48,12.90
2017,05,26,18,49,19.30
2017,05,26,18,50,17.70
2017,05,26,18,51,17.70
2017,05,26,18,52,17.70
2017,05,26,18,53,16.10
2017,05,26,18,54,11.30
2017,05,26,18,55,16.10
2017,05,26,18,56,16.10
2017,05,26,18,57,12.90
2017,05,26,18,58,14.50
2017,05,26,18,59,11.30
2017,05,26,19,00,12.90
2017,05,26,19,01,17.70
2017,05,26,19,02,16.10
2017,05,26,19,03,17.70
2017,05,26,19,04,16.10
2017,05,26,19,05,11.30
2017,05,26,19,06,8.10
2017,05,26,19,07,11.30
2017,05,26,19,08,11.30
2017,05,26,19,09,17.70
2017,05,26,19,10,8.10
2017,05,26,19,11,14.50
2017,05,26,19,12,14.50
2017,05,26,19,13,14.50
2017,05,26,19,14,11.30
2017,05,26,19,15,8.10
2017,05,26,19,16,16.10
2017,05,26,19,17,16.10
2017,05,26,19,18,16.10
2017,05,26,19,19,14.50
2017,05,26,19,20,14.50
2017,05,26,19,21,17.70
2017,05,26,19,22,16.10
2017,05,26,19,23,17.70
2017,05,26,19,24,19.30
2017,05,26,19,25,19.30
2017,05,26,19,26,11.30
2017,05,26,19,27,19.30
2017,05,26,19,28,16.10
2017,05,26,19,29,19.30
2017,05,26,19,30,20.90
2017,05,26,19,31,17.70
2017,05,26,19,32,17.70
2017,05,26,19,33,16.10
2017,05,26,19,34,19.30
2017,05,26,19,35,17.70
2017,05,26,19,36,20.90
2017,05,26,19,37,16.10
2017,05,26,19,38,16.10
2017,05,26,19,39,17.70
2017,05,26,19,40,19.30
2017,05,26,19,41,17.70
2017,05,26,19,42,20.90
2017,05,26,19,43,17.70
2017,05,26,19,44,16.10
2017,05,26,19,45,14.50
2017,05,26,19,46,12.90
2017,05,26,19,47,16.10
2017,05,26,19,48,19.30
2017,05,26,19,49,17.70
2017,05,26,19,50,17.70
2017,05,26,19,51,17.70
2017,05,26,19,52,17.70
2017,05,26,19,53,19.30
2017,05,26,19,54,17.70
2017,05,26,19,55,17.70
2017,05,26,19,56,11.30
2017,05,26,19,57,16.10
2017,05,26,19,58,16.10
2017,05,26,19,59,17.70
2017,05,26,20,00,19.30
2017,05,26,20,01,19.30
2017,05,26,20,02,19.30
2017,05,26,20,03,14.50
2017,05,26,20,04,17.70
2017,05,26,20,05,14.50
2017,05,26,20,06,20.90
2017,05,26,20,07,17.70
2017,05,26,20,08,19.30
2017,05,26,20,09,17.70
2017,05,26,20,10,19.30
2017,05,26,20,11,16.10
2017,05,26,20,12,20.90
2017,05,26,20,13,19.30
2017,05,26,20,14,17.70
2017,05,26,20,15,17.70
2017,05,26,20,16,19.30
2017,05,26,20,17,16.10
2017,05,26,20,18,14.50
2017,05,26,20,19,17.70
2017,05,26,20,20,14.50
2017,05,26,20,21,11.30
2017,05,26,20,22,11.30
2017,05,26,20,23,11.30
2017,05,26,20,24,9.60
2017,05,26,20,25,19.30
2017,05,26,20,26,14.50
2017,05,26,20,27,11.30
2017,05,26,20,28,16.10
2017,05,26,20,29,11.30
2017,05,26,20,30,14.50
2017,05,26,20,31,16.10
2017,05,26,20,32,16.10
2017,05,26,20,33,14.50
2017,05,26,20,34,17.70
2017,05,26,20,35,12.90
2017,05,26,20,36,20.90
2017,05,26,20,37,17.70
2017,05,26,20,38,9.60
2017,05,26,20,39,16.10
2017,05,26,20,40,12.90
2017,05,26,20,41,16.10
2017,05,26,20,42,11.30
2017,05,26,20,43,14.50
2017,05,26,20,44,11.30
2017,05,26,20,45,11.30